Hovedside
METAR-TAF:

METAR-TAF

Lufthavner :

Beirut, Libanon

breddegrad: 33-49N, lengdegrad: 035-29E, høyde over havet: 29 m

Gjeldene værobservasjon

Denne rapporten ble laget for 19 minutter siden, klokken 11:00 UTC
Vind 8 kt fra Nordvest
Temperatur 31°C
Luftfuktighet 63%
Trykk 1010 hPa
Sikt: 8000 m

METAR: OLBA 201100Z 32008KT 8000 NSC 31/23 Q1010 NOSIG

Tid: 14:19 (11:19 UTC)

Varsel

Denne rapporten ble laget for 7 timer og 19 minutter siden, klokken 04:00 UTC
Varsel gyldig fra 20. klokken 06 UTC til 21. klokken 12 UTC
Vind 10 kt fra Vest
Sikt: 8000 m
Spredte skyer i en høyde av 2600 ft
Blir
fra 20. klokken 18 UTC til 20. klokken 21 UTC
Vind 4 kt fra Sør-sørøst
Brutte skyer i en høyde av 2600 ft
Blir
fra 21. klokken 06 UTC til 21. klokken 09 UTC
Vind 12 kt fra Vest-sørvest
Spredte skyer i en høyde av 2600 ft

TAF: OLBA 200400Z 2006/2112 26010KT 8000 SCT026 BECMG 2018/2021 16004KT BKN026 BECMG 2106/2109 24012KT SCT026

Værobservasjoner og værvarsel for over 4000 flyplasser (METAR- og TAF-rapporter).

Tilgjengelige stasjoner er representert av de røde og gule prikkene på kartet.

Hold musepekeren over prikken for å se navnet på stasjonen.

Klikk så for å se værobservasjoner og -varsler.

For å forandre kartet kan du klikke på den grønne knappen med svart kryss for å zoome inn, på den grønne knappen med strek for å zoome ut, eller på de grønne pilene for å se tilstøtende kart.


METAR-TAF: